KI4HRG Weather Reports


time (UTC)temp
C
wind
direction
speed
KPH
gust
KPH
rain 1hr
cm
rain 24hr
cm
rain mn
cm
humidity
%
barometer
mb
20260906105434 25 314 0.0 0.0 0.00 0.00 0.00 90 1012.8
20260906104930 25 322 0.0 0.0 0.00 0.00 0.00 90 1012.8
20260906104427 25 25 0.0 0.0 0.00 0.00 0.00 89 1012.8
20260906103922 25 42 0.0 0.0 0.00 0.00 0.00 89 1012.9
20260906103420 25 0 0.0 0.0 0.00 0.00 0.00 88 1013.0
20260906102916 25 325 0.0 4.8 0.00 0.00 0.00 88 1012.8
20260906102415 25 21 1.6 3.2 0.00 0.00 0.00 86 1013.0
20260906101910 25 15 0.0 1.6 0.00 0.00 0.00 84 1012.8
20260906101405 25 2 3.2 3.2 0.00 0.00 0.00 83 1012.8
20260906100901 26 23 1.6 9.7 0.00 0.00 0.00 83 1012.8
20260906100400 26 4 1.6 3.2 0.00 0.00 0.00 81 1012.9
20260906095854 26 27 1.6 4.8 0.00 0.00 0.00 82 1013.0
20260906095350 26 24 1.6 1.6 0.00 0.00 0.00 80 1012.5
20260906094844 26 25 3.2 4.8 0.00 0.00 0.00 79 1012.3
20260906094339 26 64 0.0 1.6 0.00 0.00 0.00 80 1012.2
20260906093835 26 103 0.0 3.2 0.00 0.00 0.00 82 1012.0
20260906093331 26 5 0.0 1.6 0.00 0.00 0.00 83 1012.3
20260906092826 26 66 0.0 3.2 0.00 0.00 0.00 86 1012.1
20260906092326 26 336 1.6 1.6 0.00 0.00 0.00 89 1012.2
20260906091821 26 51 0.0 3.2 0.00 0.00 0.00 91 1012.2
20260906091317 26 331 0.0 0.0 0.00 0.00 0.00 93 1012.3
20260906090814 26 329 0.0 0.0 0.00 0.00 0.00 93 1012.3
20260906090313 26 145 0.0 0.0 0.00 0.00 0.00 94 1012.0
20260906085813 26 134 0.0 0.0 0.00 0.00 0.00 94 1012.2
20260906085311 26 208 3.2 3.2 0.00 0.00 0.00 94 1012.2
20260906084806 26 290 3.2 4.8 0.00 0.00 0.00 94 1012.0
20260906084300 26 33 0.0 1.6 0.00 0.00 0.00 94 1012.1
20260906083755 26 207 1.6 3.2 0.00 0.00 0.00 93 1012.2
20260906083251 26 261 3.2 4.8 0.00 0.00 0.00 93 1012.2
20260906082745 26 346 1.6 1.6 0.00 0.00 0.00 93 1012.3
20260906082241 26 292 3.2 3.2 0.00 0.00 0.00 93 1012.3
20260906081736 26 296 0.0 0.0 0.00 0.00 0.00 93 1012.4
20260906081231 26 266 0.0 0.0 0.00 0.00 0.00 93 1012.5
20260906080728 26 291 1.6 1.6 0.00 0.00 0.00 93 1012.7
20260906080224 26 335 0.0 0.0 0.00 0.00 0.00 94 1013.0
20260906075723 26 53 0.0 0.0 0.00 0.00 0.00 94 1012.7
20260906075218 26 19 3.2 4.8 0.00 0.00 0.00 94 1012.6
20260906074713 26 21 0.0 1.6 0.00 0.00 0.00 94 1012.4
20260906074213 26 280 0.0 0.0 0.00 0.00 0.00 94 1012.4
20260906073707 26 48 0.0 0.0 0.00 0.00 0.00 94 1012.5
20260906073203 26 74 0.0 3.2 0.00 0.00 0.00 94 1012.2
20260906072658 26 182 0.0 0.0 0.00 0.00 0.00 95 1012.1
20260906072154 26 301 0.0 0.0 0.00 0.00 0.00 94 1012.0
20260906071650 26 354 0.0 0.0 0.00 0.00 0.00 94 1012.4
20260906071149 26 4 0.0 0.0 0.00 0.00 0.00 95 1012.4
20260906070646 26 322 0.0 0.0 0.00 0.00 0.00 94 1012.4
20260906070141 26 318 0.0 0.0 0.00 0.00 0.00 94 1012.4
20260906065641 26 321 0.0 0.0 0.00 0.00 0.00 94 1012.5
20260906065136 26 312 0.0 0.0 0.00 0.00 0.00 94 1012.5
20260906064632 26 302 0.0 0.0 0.00 0.00 0.00 94 1012.4
20260906064127 26 333 0.0 0.0 0.00 0.00 0.00 94 1012.6
20260906063622 26 346 0.0 0.0 0.00 0.00 0.00 94 1012.8
20260906063118 26 337 0.0 0.0 0.00 0.00 0.00 94 1012.7
20260906062613 26 10 0.0 0.0 0.00 0.00 0.00 94 1012.8
20260906062112 26 19 0.0 0.0 0.00 0.00 0.00 94 1012.8
20260906061609 26 311 0.0 0.0 0.00 0.00 0.00 94 1012.9
20260906061108 26 324 0.0 0.0 0.00 0.00 0.00 94 1013.1
20260906060605 26 324 0.0 0.0 0.00 0.00 0.00 94 1013.0
20260906055557 25 324 0.0 0.0 0.00 0.00 0.00 94 1013.2
20260906055053 25 315 0.0 0.0 0.00 0.00 0.00 94 1012.9
20260906054552 26 317 0.0 0.0 0.00 0.00 0.00 93 1013.0
20260906054048 26 318 0.0 0.0 0.00 0.00 0.00 93 1013.2
20260906053544 26 288 0.0 0.0 0.00 0.00 0.00 93 1012.9
20260906053039 26 323 0.0 0.0 0.00 0.00 0.00 92 1013.0
20260906052535 26 323 0.0 0.0 0.00 0.00 0.00 92 1013.1
20260906052032 26 325 0.0 0.0 0.00 0.00 0.00 92 1012.9
20260906051527 26 303 0.0 0.0 0.00 0.00 0.00 92 1013.2
20260906051022 26 292 0.0 0.0 0.00 0.00 0.00 91 1013.2
20260906050518 26 315 0.0 0.0 0.00 0.00 0.00 91 1013.3
20260906050012 26 310 0.0 0.0 0.00 0.00 0.00 91 1013.2
20260906045510 26 346 0.0 0.0 0.00 0.00 0.00 90 1012.9
20260906045006 26 31 1.6 3.2 0.00 0.00 0.00 90 1013.2
20260906044501 26 36 0.0 1.6 0.00 0.00 0.00 90 1013.1
20260906043951 26 317 0.0 0.0 0.00 0.00 0.00 90 1012.9
20260906043447 26 351 0.0 0.0 0.00 0.00 0.00 90 1013.1
20260906042943 26 351 0.0 0.0 0.00 0.00 0.00 90 1012.9
20260906042442 26 303 0.0 0.0 0.00 0.00 0.00 90 1013.0
20260906041936 26 315 0.0 0.0 0.00 0.00 0.00 90 1013.1
20260906041433 26 315 0.0 0.0 0.00 0.00 0.00 90 1013.0
20260906040932 26 306 0.0 0.0 0.00 0.00 0.00 90 1013.1
20260906040427 26 318 0.0 0.0 0.00 0.00 0.00 90 1013.1
20260906035923 26 318 0.0 0.0 0.00 0.00 0.00 90 1013.1
20260906035418 26 294 0.0 0.0 0.00 0.00 0.00 90 1013.0
20260906034913 26 0 0.0 0.0 0.00 0.00 0.00 90 1012.9
20260906034414 26 0 0.0 0.0 0.00 0.00 0.00 89 1013.0
20260906033909 26 19 0.0 0.0 0.00 0.00 0.00 89 1013.3
20260906033409 26 89 0.0 0.0 0.00 0.00 0.00 89 1013.1
20260906032904 27 89 0.0 0.0 0.00 0.00 0.00 89 1013.1
20260906032401 27 89 0.0 0.0 0.00 0.00 0.00 88 1013.0
20260906031855 27 98 0.0 0.0 0.00 0.00 0.00 88 1013.0
20260906031350 27 99 0.0 0.0 0.00 0.00 0.00 88 1012.9
20260906030845 27 87 0.0 0.0 0.00 0.00 0.00 88 1013.0
20260906030341 27 84 0.0 0.0 0.00 0.00 0.00 88 1012.9
20260906025835 27 85 0.0 0.0 0.00 0.00 0.00 88 1012.7
20260906025329 27 72 0.0 0.0 0.00 0.00 0.00 88 1012.9
20260906024828 27 74 0.0 0.0 0.00 0.00 0.00 88 1012.9
20260906024327 27 81 0.0 0.0 0.00 0.00 0.00 87 1013.0
20260906023823 27 75 0.0 0.0 0.00 0.00 0.00 87 1012.9
20260906023319 27 79 0.0 0.0 0.00 0.00 0.00 87 1012.9
20260906022814 27 120 0.0 0.0 0.00 0.00 0.00 86 1012.9
20260906022309 27 136 0.0 1.6 0.00 0.00 0.00 86 1012.7
20260906021805 27 93 0.0 0.0 0.00 0.00 0.00 86 1012.7
20260906021304 27 95 0.0 0.0 0.00 0.00 0.00 86 1012.7
20260906020758 27 107 0.0 0.0 0.00 0.00 0.00 86 1012.8
20260906020252 28 107 0.0 0.0 0.00 0.00 0.00 85 1012.7
20260906015753 28 109 0.0 1.6 0.00 0.00 0.00 85 1012.7
20260906015251 28 326 0.0 0.0 0.00 0.00 0.00 84 1012.4
20260906014746 28 320 0.0 0.0 0.00 0.00 0.00 84 1012.4
20260906014241 28 318 0.0 0.0 0.00 0.00 0.00 84 1012.4
20260906013738 28 284 0.0 0.0 0.00 0.00 0.00 84 1012.1
20260906013237 28 265 0.0 0.0 0.00 0.00 0.00 83 1012.0
20260906012733 28 187 1.6 1.6 0.00 0.00 0.00 83 1011.9
20260906012227 28 290 0.0 0.0 0.00 0.00 0.00 83 1011.8
20260906011723 28 219 1.6 1.6 0.00 0.00 0.00 83 1011.8
20260906011217 28 98 0.0 1.6 0.00 0.00 0.00 82 1011.5
20260906010713 28 175 1.6 1.6 0.00 0.00 0.00 83 1011.5
20260906010209 28 143 0.0 0.0 0.00 0.00 0.00 83 1011.7
20260906005709 28 124 0.0 0.0 0.00 0.00 0.00 82 1011.5
20260906005203 29 149 0.0 0.0 0.00 0.00 0.00 82 1011.5
20260906004701 29 109 0.0 0.0 0.00 0.00 0.00 82 1011.3
20260906004157 29 108 0.0 0.0 0.00 0.00 0.00 82 1011.4
20260906003652 29 143 0.0 0.0 0.00 0.00 0.00 81 1011.5
20260906003147 29 138 0.0 0.0 0.00 0.00 0.00 81 1011.5
20260906002642 30 319 0.0 1.6 0.00 0.00 0.00 80 1011.4
20260906002137 30 134 0.0 0.0 0.00 0.00 0.00 80 1011.4
20260906001632 30 220 0.0 3.2 0.00 0.00 0.00 79 1011.4
20260906001132 30 234 0.0 1.6 0.00 0.00 0.00 79 1011.7
20260906000628 30 178 1.6 1.6 0.00 0.00 0.00 78 1011.7
20260906000123 30 172 0.0 3.2 0.00 0.00 0.00 78 1011.7
20260905235622 30 167 3.2 3.2 0.00 0.00 0.00 78 1011.6
20260905235117 30 42 0.0 1.6 0.00 0.00 0.00 76 1011.6
20260905234612 30 86 0.0 1.6 0.00 0.00 0.00 76 1011.6
20260905234107 30 206 0.0 1.6 0.00 0.00 0.00 77 1011.7
20260905233602 30 195 0.0 1.6 0.00 0.00 0.00 77 1011.8
20260905233056 30 78 1.6 3.2 0.00 0.00 0.00 77 1011.4
20260905232552 30 211 1.6 3.2 0.00 0.00 0.00 77 1011.6
20260905232048 31 161 3.2 8.0 0.00 0.00 0.00 77 1011.6
20260905231543 31 96 1.6 3.2 0.00 0.00 0.00 76 1011.4
20260905231039 31 86 0.0 4.8 0.00 0.00 0.00 76 1011.6
20260905230538 31 217 1.6 3.2 0.00 0.00 0.00 75 1011.3
20260905230037 31 180 3.2 8.0 0.00 0.00 0.00 74 1011.4
20260905225532 31 212 0.0 4.8 0.00 0.00 0.00 73 1011.4
20260905225027 31 147 3.2 4.8 0.00 0.00 0.00 74 1011.5
20260905224521 31 169 4.8 8.0 0.00 0.00 0.00 74 1011.6
20260905224021 32 290 1.6 4.8 0.00 0.00 0.00 73 1011.5
20260905223518 32 84 1.6 4.8 0.00 0.00 0.00 71 1011.6
20260905223013 32 209 0.0 4.8 0.00 0.00 0.00 70 1011.4
20260905222508 33 97 1.6 8.0 0.00 0.00 0.00 68 1011.1
20260905222003 33 169 0.0 1.6 0.00 0.00 0.00 67 1011.1
20260905221500 33 180 3.2 3.2 0.00 0.00 0.00 67 1011.2
20260905220956 33 159 1.6 3.2 0.00 0.00 0.00 67 1011.2
20260905220452 33 151 0.0 3.2 0.00 0.00 0.00 66 1011.1
20260905215950 33 131 0.0 3.2 0.00 0.00 0.00 65 1010.9
20260905215446 34 222 3.2 8.0 0.00 0.00 0.00 65 1010.8
20260905214943 34 128 0.0 3.2 0.00 0.00 0.00 63 1010.9
20260905214438 34 189 0.0 1.6 0.00 0.00 0.00 62 1010.9
20260905213938 35 168 3.2 9.7 0.00 0.00 0.00 61 1010.8
20260905213434 35 127 1.6 1.6 0.00 0.00 0.00 56 1010.9
20260905212929 35 76 0.0 1.6 0.00 0.00 0.00 55 1011.0
20260905212424 35 70 1.6 8.0 0.00 0.00 0.00 55 1010.9
20260905211923 35 203 1.6 3.2 0.00 0.00 0.00 55 1011.0
20260905211419 35 139 6.4 11.3 0.00 0.00 0.00 54 1011.2
20260905210915 36 175 0.0 4.8 0.00 0.00 0.00 54 1010.9
20260905210409 36 171 1.6 3.2 0.00 0.00 0.00 53 1011.1
20260905205909 36 167 3.2 3.2 0.00 0.00 0.00 50 1011.0
20260905205403 36 152 0.0 1.6 0.00 0.00 0.00 50 1011.0
20260905204902 36 74 1.6 1.6 0.00 0.00 0.00 53 1011.1
20260905204358 36 184 4.8 4.8 0.00 0.00 0.00 53 1011.3
20260905203851 35 143 0.0 1.6 0.00 0.00 0.00 56 1011.5
20260905203347 35 143 0.0 1.6 0.00 0.00 0.00 56 1011.3
20260905202842 36 345 0.0 0.0 0.00 0.00 0.00 56 1011.4
20260905202337 36 28 1.6 1.6 0.00 0.00 0.00 56 1011.5
20260905201833 36 34 6.4 11.3 0.00 0.00 0.00 55 1011.4
20260905201328 37 166 4.8 4.8 0.00 0.00 0.00 47 1011.5
20260905200822 36 104 0.0 8.0 0.00 0.00 0.00 47 1011.4
20260905200319 36 47 0.0 8.0 0.00 0.00 0.00 46 1011.3
20260905195816 37 48 4.8 8.0 0.00 0.00 0.00 46 1011.5
20260905194808 36 136 0.0 8.0 0.00 0.00 0.00 47 1011.7
20260905194307 36 40 1.6 4.8 0.00 0.00 0.00 46 1011.6
20260905193806 36 85 0.0 4.8 0.00 0.00 0.00 45 1011.6
20260905193301 36 109 1.6 3.2 0.00 0.00 0.00 46 1011.8
20260905192756 37 317 1.6 4.8 0.00 0.00 0.00 45 1012.0
20260905192253 36 315 0.0 3.2 0.00 0.00 0.00 45 1012.0
20260905191751 37 20 3.2 9.7 0.00 0.00 0.00 45 1012.0
20260905191250 37 354 3.2 9.7 0.00 0.00 0.00 47 1012.2
20260905190748 36 45 0.0 8.0 0.00 0.00 0.00 49 1012.2
20260905190243 36 346 1.6 1.6 0.00 0.00 0.00 49 1012.2
20260905185741 35 351 0.0 3.2 0.00 0.00 0.00 50 1012.4
20260905185236 36 330 4.8 4.8 0.00 0.00 0.00 50 1012.5
20260905184730 36 345 1.6 4.8 0.00 0.00 0.00 50 1012.5
20260905184230 36 72 0.0 3.2 0.00 0.00 0.00 49 1012.6
20260905183723 36 344 4.8 8.0 0.00 0.00 0.00 49 1012.5
20260905183219 35 354 1.6 4.8 0.00 0.00 0.00 50 1012.8
20260905182713 36 28 3.2 8.0 0.00 0.00 0.00 52 1012.7
20260905182213 35 60 1.6 3.2 0.00 0.00 0.00 53 1012.9
20260905181708 35 24 1.6 8.0 0.00 0.00 0.00 52 1013.0
20260905181207 36 121 3.2 9.7 0.00 0.00 0.00 49 1013.0
20260905180702 37 67 0.0 8.0 0.00 0.00 0.00 47 1013.1
20260905180158 37 3 0.0 1.6 0.00 0.00 0.00 47 1013.2
20260905175656 37 342 4.8 4.8 0.00 0.00 0.00 47 1013.1
20260905175152 37 172 8.0 11.3 0.00 0.00 0.00 48 1013.3
20260905174647 36 22 3.2 12.9 0.00 0.00 0.00 49 1013.4
20260905174143 36 339 0.0 3.2 0.00 0.00 0.00 50 1013.5
20260905173639 36 67 0.0 3.2 0.00 0.00 0.00 51 1013.6
20260905173134 36 167 0.0 0.0 0.00 0.00 0.00 49 1013.6
20260905172633 36 30 3.2 4.8 0.00 0.00 0.00 50 1013.7
20260905172128 36 23 4.8 8.0 0.00 0.00 0.00 50 1013.8
20260905171624 35 72 0.0 4.8 0.00 0.00 0.00 52 1013.6
20260905171120 36 51 1.6 3.2 0.00 0.00 0.00 52 1013.9
20260905170616 35 115 0.0 3.2 0.00 0.00 0.00 53 1014.1
20260905170111 36 157 4.8 9.7 0.00 0.00 0.00 52 1014.2
20260905165606 36 63 0.0 1.6 0.00 0.00 0.00 53 1014.1
20260905165101 35 22 0.0 1.6 0.00 0.00 0.00 55 1014.1
20260905164556 35 126 3.2 12.9 0.00 0.00 0.00 55 1014.2
20260905164050 35 348 3.2 4.8 0.00 0.00 0.00 54 1014.2
20260905163546 34 125 0.0 1.6 0.00 0.00 0.00 56 1014.4
20260905163042 34 78 0.0 1.6 0.00 0.00 0.00 55 1014.6
20260905162539 35 197 1.6 4.8 0.00 0.00 0.00 55 1014.3
20260905162037 34 117 3.2 4.8 0.00 0.00 0.00 57 1014.4
20260905161532 35 34 8.0 9.7 0.00 0.00 0.00 56 1014.6
20260905161030 36 13 3.2 4.8 0.00 0.00 0.00 54 1014.6
20260905160529 35 28 0.0 3.2 0.00 0.00 0.00 56 1014.4
20260905160029 36 113 1.6 4.8 0.00 0.00 0.00 54 1014.7
20260905155529 35 20 3.2 4.8 0.00 0.00 0.00 56 1014.4
20260905155027 35 56 0.0 4.8 0.00 0.00 0.00 57 1014.6
20260905154523 35 228 3.2 3.2 0.00 0.00 0.00 57 1014.4
20260905154018 33 6 3.2 9.7 0.00 0.00 0.00 59 1014.6
20260905153514 35 340 4.8 11.3 0.00 0.00 0.00 57 1014.7
20260905153014 35 317 0.0 3.2 0.00 0.00 0.00 57 1014.6
20260905152514 34 53 0.0 3.2 0.00 0.00 0.00 58 1014.4
20260905152009 34 353 3.2 3.2 0.00 0.00 0.00 58 1014.6
20260905151504 35 63 0.0 3.2 0.00 0.00 0.00 59 1014.6
20260905150959 33 290 4.8 4.8 0.00 0.00 0.00 60 1014.7
20260905150454 33 82 1.6 4.8 0.00 0.00 0.00 61 1014.4
20260905145951 34 129 0.0 1.6 0.00 0.00 0.00 60 1014.6
20260905145445 33 53 1.6 1.6 0.00 0.00 0.00 64 1014.4
20260905144945 33 41 0.0 1.6 0.00 0.00 0.00 63 1014.8
20260905144440 33 57 0.0 1.6 0.00 0.00 0.00 65 1014.7
20260905143939 33 65 0.0 0.0 0.00 0.00 0.00 63 1014.9
20260905143438 32 345 1.6 3.2 0.00 0.00 0.00 66 1014.8
20260905142933 32 282 0.0 1.6 0.00 0.00 0.00 67 1014.9
20260905142432 32 314 0.0 1.6 0.00 0.00 0.00 67 1014.8
20260905141928 32 291 1.6 3.2 0.00 0.00 0.00 69 1014.8
20260905141422 32 71 0.0 1.6 0.00 0.00 0.00 71 1014.7
20260905140919 31 71 0.0 3.2 0.00 0.00 0.00 72 1014.8
20260905140414 31 356 3.2 3.2 0.00 0.00 0.00 73 1014.8
20260905135912 30 76 3.2 3.2 0.00 0.00 0.00 75 1014.8
20260905135408 30 76 0.0 1.6 0.00 0.00 0.00 75 1015.0
20260905134904 30 76 0.0 3.2 0.00 0.00 0.00 78 1015.0
20260905134402 30 77 0.0 1.6 0.00 0.00 0.00 79 1015.0
20260905133856 30 82 3.2 3.2 0.00 0.00 0.00 78 1015.0
20260905133352 30 79 0.0 0.0 0.00 0.00 0.00 79 1014.8
20260905132851 29 77 0.0 0.0 0.00 0.00 0.00 80 1015.0
20260905132346 29 81 0.0 0.0 0.00 0.00 0.00 80 1014.9
20260905131840 28 80 0.0 0.0 0.00 0.00 0.00 81 1014.8
20260905131336 28 80 0.0 0.0 0.00 0.00 0.00 83 1014.9
20260905130831 27 78 0.0 0.0 0.00 0.00 0.00 84 1015.2
20260905130330 27 77 0.0 1.6 0.00 0.00 0.00 85 1015.2
20260905125826 27 77 0.0 1.6 0.00 0.00 0.00 87 1015.1
20260905125321 26 78 0.0 0.0 0.00 0.00 0.00 87 1015.3
20260905124817 26 78 0.0 0.0 0.00 0.00 0.00 87 1015.0
20260905124313 27 83 0.0 1.6 0.00 0.00 0.00 86 1015.1
20260905123808 27 78 0.0 0.0 0.00 0.00 0.00 86 1015.1
20260905123305 26 78 0.0 0.0 0.00 0.00 0.00 88 1015.2
20260905122804 25 78 0.0 0.0 0.00 0.00 0.00 92 1015.1
20260905122306 24 79 0.0 0.0 0.00 0.00 0.00 95 1015.0
20260905121759 23 78 0.0 0.0 0.00 0.00 0.00 99 1015.2
20260905121255 23 78 0.0 0.0 0.00 0.00 0.00 99 1015.0
20260905120754 23 83 0.0 0.0 0.00 0.00 0.00 99 1014.8
20260905120254 23 87 0.0 0.0 0.00 0.00 0.00 99 1014.9
20260905115749 22 229 0.0 0.0 0.00 0.00 0.00 99 1015.0
20260905115248 22 31 0.0 0.0 0.00 0.00 0.00 99 1014.8
20260905114748 22 31 0.0 0.0 0.00 0.00 0.00 99 1014.9
20260905114247 22 31 0.0 0.0 0.00 0.00 0.00 99 1014.9
20260905113747 22 31 0.0 0.0 0.00 0.00 0.00 99 1014.8
20260905113243 22 31 0.0 0.0 0.00 0.00 0.00 99 1014.9
20260905112737 22 31 0.0 0.0 0.00 0.00 0.00 99 1014.8
20260905112232 22 31 0.0 0.0 0.00 0.00 0.00 99 1014.6
20260905111727 22 31 0.0 0.0 0.00 0.00 0.00 99 1014.7
20260905111221 22 31 0.0 0.0 0.00 0.00 0.00 99 1014.7
20260905110720 22 31 0.0 0.0 0.00 0.00 0.00 99 1014.6
20260905110215 22 31 0.0 0.0 0.00 0.00 0.00 99 1014.4
20260905105711 22 31 0.0 0.0 0.00 0.00 0.00 99 1014.4